Vertical_Velocity
1 1 -1 -2 -3 -2 0 2 -0 -2 3 0 -0 -0 -0 -2 0 -1 -1 0 1 1 -1 -4 -2 -2 -10 15 7 -24 3 -5 5 -2 0 -1 1 0 -1 -1 7 6 -2 4 -5 2 -1
-2 -0 3 -1 -3 -1 -1 2 -0 -1 0 3 -1 -1 -2 -0 -2 -1 -2 1 -0 1 -1 -2 -3 -4 1 -2 4 -5 0 -0 2 -1 3 -5 9 6 1 -2 1 -6 -5 -1 0 -2 -0
-2 -1 2 1 -1 -2 -2 -1 0 -1 -1 2 -1 1 -2 1 -4 -0 -4 1 -2 1 -2 -1 -3 -2 2 8 3 3 -4 -7 0 3 5 -3 -6 8 -0 1 0 2 6 4 5 -8 0
-0 -3 -2 2 1 -1 -1 -1 -3 -0 -0 0 0 1 -2 1 -2 -2 -2 -0 -3 3 -3 -0 -1 -4 6 -5 -6 7 2 -5 4 3 4 -4 -8 4 7 -2 9 8 8 3 -5 2 1
3 -1 -1 1 0 0 -0 -0 -5 -0 -2 -2 1 1 -2 0 -0 -3 -2 -1 -1 3 -3 -4 3 -0 7 -3 1 -5 -3 1 8 4 4 -12 3 0 2 1 7 6 -2 3 11 -1 0
2 1 1 -3 1 -0 0 1 -3 -2 -1 -0 -1 -0 -3 -0 -1 -1 -2 -2 1 -5 -7 -7 3 6 -11 -1 -4 -7 0 -2 6 -1 -6 -8 4 2 6 7 -7 -3 4 5 -2 0 5
-3 1 -0 -4 -1 1 1 1 -1 -3 -2 0 -1 -1 -1 -2 -1 1 -4 -4 2 9 -15 3 3 1 -0 -2 3 -2 -4 9 3 -1 -2 -4 5 -2 -6 -4 2 -1 3 -1 -3 3 4
6 2 1 -2 -1 -2 4 1 0 -2 -3 -0 -2 -0 -1 -3 -1 -0 -3 6 -2 -3 6 -2 -4 1 -1 -3 5 -3 1 5 2 -0 2 0 -1 -2 -1 1 -0 2 0 1 1 1 7
1 1 -0 -1 2 -3 2 2 -0 -2 -2 -1 -1 1 -1 -3 -0 -1 -0 -2 -1 -3 4 -1 -4 0 -1 -7 -2 5 0 -3 -3 1 0 -2 0 1 0 2 3 0 -2 -0 -5 1 2
2 -2 -1 1 3 -5 0 1 1 -3 -1 -0 1 -0 -2 -2 -2 -1 1 -3 -1 -3 1 3 3 -0 6 -5 1 -5 -7 5 -0 -1 -1 1 -3 0 2 -0 2 2 -1 1 0 4 -1
6 3 0 -2 2 -2 0 0 1 -2 -0 -0 0 -0 -1 2 -1 1 -1 -5 -0 -4 1 -1 3 -4 -3 4 -1 5 -2 1 -2 -1 7 -5 1 3 4 -9 2 -1 -1 -1 0 1 5
10 1 -1 -2 -0 3 -3 1 -0 -1 0 0 -1 -2 0 1 -1 -2 -2 -2 -2 4 -1 1 1 2 3 0 2 -2 2 -5 4 0 -1 1 -3 4 -6 0 0 0 3 3 2 3 5
7 12 -4 -4 -1 5 -7 3 -0 -0 1 1 -1 -3 1 -2 6 -6 -2 -2 2 2 2 -2 1 1 1 1 2 2 0 3 1 0 1 -1 1 -1 -0 6 4 6 6 3 6 5 -7
-6 30 -1 -1 -1 4 -5 2 -1 0 2 2 -2 -3 1 -2 0 -3 -5 5 -2 2 -1 -2 0 1 2 -1 1 -0 2 2 4 3 0 -1 4 0 -2 -3 -7 -5 -3 -3 -4 -0 -7
-3 17 3 3 -4 2 -3 -1 0 -0 1 3 -1 -2 0 -2 -1 -1 8 -3 3 -0 -1 1 3 3 1 2 5 4 1 -1 -4 -2 1 1 1 3 1 -1 5 -11 6 -9 2 1 2
3 8 -3 2 -2 -0 -1 -2 2 -1 1 3 -0 1 0 0 -4 -2 1 0 0 -0 0 3 3 3 1 -0 4 5 1 -7 -3 -1 -0 -1 1 -2 1 4 2 4 -4 4 1 1 0
-1 -2 6 -1 2 1 -2 -2 2 -1 -0 3 0 4 -1 0 -1 5 -2 0 -0 -2 1 4 0 1 -2 1 1 -1 -5 -6 -0 -0 2 0 -0 6 1 1 -7 6 3 3 1 4 3
-4 13 8 3 3 0 -2 -2 1 -2 2 4 0 4 -1 -1 8 -0 0 -1 -2 -1 1 -1 4 3 2 0 1 2 -2 -1 -1 -4 -0 -6 -3 -0 -11 -5 -2 -1 -5 0 4 -2 -2
-5 4 18 1 3 -2 -4 -0 0 -2 0 -1 1 1 1 -2 1 0 2 0 -0 2 -1 0 0 2 -0 1 4 4 -0 -8 -2 2 -5 -3 -0 2 8 8 7 2 -2 -1 0 3 -3
-1 -1 18 2 3 -2 -3 -0 -1 1 1 1 1 2 1 -0 -3 2 0 -1 0 -1 -2 1 -0 4 4 1 -2 -4 -2 -3 -2 -1 -1 7 0 -6 -7 2 -7 4 2 0 1 3 -6
-0 9 26 1 6 -2 -1 -1 -2 1 1 1 0 1 -2 0 2 0 1 0 0 -0 -0 -0 -2 3 5 1 -1 -2 -3 -9 0 -2 2 1 1 3 -3 -1 1 -2 -2 -1 4 -9 7
-2 8 12 1 5 -5 -0 -4 6 2 3 2 -1 -3 -3 -0 -1 2 1 -1 0 -1 3 -4 5 -1 2 5 8 -1 5 1 5 -4 1 -1 1 0 0 -0 1 1 -0 0 -0 -1 3
1 0 16 -1 1 -0 -2 -2 1 2 3 -1 1 0 -1 -1 1 3 -1 -1 -0 0 -0 0 2 4 1 -0 1 -1 0 3 -1 0 0 2 1 1 0 -0 1 4 -12 -2 -2 0 -2
12 1 6 -7 -2 3 -3 -1 2 1 2 0 -1 -4 -1 1 2 -2 -0 -0 -0 -2 2 -1 1 6 6 -5 -5 0 5 2 6 -0 -1 -0 2 -0 1 2 3 -0 -0 -3 -0 -4 -0
5 17 10 -11 1 4 0 -2 1 1 1 -0 -1 -5 -3 0 -2 2 2 -1 0 -2 -0 2 -1 2 -7 1 2 -3 3 2 -5 -3 2 0 1 2 -0 -1 -4 -2 1 -3 -4 -11 -3
7 17 -7 -1 4 3 -3 -1 0 3 1 1 1 0 -4 -3 -2 -1 -1 -1 0 -0 3 -1 -0 -4 0 2 1 1 1 2 2 5 -0 4 2 6 2 2 -1 7 2 -0 -0 -5 0
10 3 1 -3 4 2 0 -0 -0 -0 -1 3 -1 -1 -3 -3 -0 -2 1 1 -2 -1 1 -1 -0 2 -3 0 1 1 -1 2 3 1 0 2 2 -1 -1 -0 -4 1 1 -2 5 8 0
10 4 -2 -4 6 -0 2 0 3 4 1 -2 -2 -2 -3 -1 0 -0 -2 -2 -2 -2 0 4 5 4 2 2 1 -0 2 0 2 0 -0 -2 1 -1 3 2 -4 -1 5 5 5 -0 -1
8 9 -1 -2 2 1 3 2 -0 2 2 3 -5 -3 -1 -6 -0 -1 -3 -6 -4 -2 -1 -2 3 -1 2 2 2 1 1 1 1 1 1 2 6 3 4 -2 3 -3 3 -2 1 3 1
Height
1549 1547 1545 1542 1539 1536 1532 1527 1524 1521 1518 1514 1512 1508 1505 1504 1503 1500 1498 1495 1493 1490 1489 1487 1485 1482 1481 1481 1482 1479 1475 1475 1477 1477 1479 1482 1482 1483 1480 1482 1489 1491 1495 1495 1495 1498 1500
1548 1545 1544 1541 1538 1535 1531 1527 1523 1520 1517 1514 1511 1507 1504 1502 1501 1499 1497 1495 1493 1490 1488 1487 1485 1483 1483 1483 1484 1481 1481 1477 1478 1479 1482 1484 1485 1485 1481 1478 1483 1489 1496 1496 1498 1499 1501
1546 1544 1542 1539 1537 1534 1530 1526 1523 1519 1516 1513 1509 1506 1503 1501 1500 1498 1497 1495 1492 1490 1488 1487 1485 1484 1485 1488 1485 1484 1481 1479 1480 1481 1484 1484 1485 1487 1483 1482 1483 1485 1492 1495 1495 1506 1502
1544 1542 1540 1537 1535 1532 1529 1525 1521 1518 1515 1512 1508 1505 1501 1499 1498 1497 1496 1494 1493 1490 1488 1487 1485 1486 1486 1488 1486 1485 1483 1482 1483 1484 1485 1486 1490 1492 1488 1488 1486 1484 1489 1495 1500 1498 1499
1540 1539 1537 1535 1532 1531 1527 1524 1520 1516 1513 1510 1507 1504 1501 1498 1497 1496 1495 1494 1493 1490 1488 1488 1489 1487 1488 1489 1487 1485 1484 1485 1485 1488 1490 1493 1496 1493 1490 1487 1490 1486 1488 1493 1493 1492 1495
1536 1535 1534 1532 1529 1528 1526 1522 1519 1515 1511 1508 1505 1502 1500 1498 1496 1496 1495 1494 1494 1491 1490 1489 1490 1492 1491 1491 1488 1486 1485 1487 1488 1489 1494 1497 1497 1491 1487 1484 1491 1488 1483 1480 1483 1492 1495
1532 1531 1530 1528 1527 1525 1523 1520 1517 1514 1509 1506 1503 1501 1499 1497 1496 1496 1495 1494 1498 1497 1494 1495 1496 1493 1493 1493 1491 1489 1488 1490 1490 1494 1497 1502 1497 1487 1481 1480 1478 1477 1480 1475 1478 1486 1495
1526 1526 1526 1525 1523 1522 1521 1518 1515 1512 1508 1504 1502 1500 1498 1496 1495 1496 1496 1497 1496 1498 1497 1497 1497 1496 1494 1492 1492 1492 1492 1492 1489 1492 1497 1502 1489 1485 1482 1481 1484 1481 1478 1481 1488 1491 1496
1520 1520 1521 1521 1519 1518 1517 1515 1513 1510 1507 1503 1501 1499 1497 1496 1495 1496 1496 1497 1496 1497 1495 1499 1498 1497 1496 1494 1494 1495 1494 1493 1490 1492 1495 1501 1490 1489 1487 1488 1485 1482 1482 1490 1489 1492 1494
1515 1515 1516 1516 1515 1515 1514 1512 1510 1508 1505 1502 1499 1498 1497 1495 1497 1495 1497 1496 1497 1498 1498 1499 1498 1499 1499 1498 1497 1496 1496 1497 1494 1493 1495 1497 1492 1492 1489 1488 1485 1486 1483 1483 1488 1495 1494
1507 1510 1510 1512 1510 1510 1510 1509 1508 1506 1503 1500 1499 1497 1496 1494 1496 1497 1497 1496 1497 1499 1486 1500 1498 1498 1497 1496 1497 1497 1498 1497 1493 1496 1499 1497 1495 1494 1489 1484 1486 1486 1489 1490 1492 1494 1492
1497 1502 1504 1506 1506 1506 1506 1505 1505 1503 1500 1498 1497 1497 1496 1496 1496 1495 1495 1496 1500 1501 1494 1500 1497 1496 1494 1496 1495 1497 1498 1499 1496 1497 1499 1499 1497 1492 1487 1487 1490 1491 1492 1493 1496 1498 1509
1489 1494 1497 1499 1500 1501 1501 1501 1501 1500 1498 1496 1496 1496 1496 1495 1497 1495 1496 1500 1501 1488 1505 1500 1495 1495 1494 1493 1494 1494 1493 1495 1494 1501 1502 1503 1497 1495 1497 1492 1493 1492 1490 1503 1509 1509 1493
1480 1484 1489 1492 1494 1496 1496 1497 1497 1497 1496 1495 1495 1495 1495 1495 1495 1495 1498 1499 1493 1492 1498 1496 1495 1493 1492 1489 1488 1489 1487 1488 1486 1489 1495 1499 1500 1494 1490 1489 1491 1491 1487 1488 1495 1482 1476
1472 1476 1480 1485 1488 1491 1491 1492 1493 1494 1493 1493 1494 1494 1495 1494 1495 1495 1499 1496 1492 1494 1497 1493 1493 1492 1483 1485 1487 1487 1483 1479 1477 1482 1485 1491 1491 1491 1491 1491 1494 1490 1490 1484 1491 1486 1485
1465 1467 1471 1478 1481 1484 1486 1487 1489 1490 1491 1491 1493 1494 1495 1493 1494 1495 1496 1495 1492 1494 1495 1494 1486 1482 1477 1481 1488 1485 1478 1468 1471 1476 1480 1484 1489 1490 1493 1494 1494 1494 1486 1496 1497 1495 1489
1454 1457 1464 1470 1474 1478 1480 1482 1485 1487 1488 1490 1493 1495 1494 1493 1493 1496 1499 1491 1491 1492 1495 1492 1483 1481 1478 1476 1478 1482 1473 1468 1468 1470 1475 1474 1481 1490 1495 1490 1483 1490 1490 1488 1484 1479 1479
1442 1447 1452 1462 1467 1471 1474 1477 1480 1483 1485 1488 1490 1491 1492 1492 1495 1492 1489 1491 1492 1490 1493 1491 1488 1482 1479 1474 1474 1476 1472 1465 1467 1468 1473 1473 1477 1484 1484 1484 1483 1483 1482 1482 1485 1485 1481
1432 1438 1444 1453 1460 1464 1469 1472 1475 1478 1481 1483 1487 1489 1490 1491 1488 1488 1489 1489 1490 1488 1488 1487 1483 1481 1478 1477 1476 1465 1465 1465 1470 1472 1468 1471 1479 1480 1484 1486 1484 1484 1481 1481 1478 1476 1489
1421 1427 1435 1444 1452 1457 1462 1467 1471 1474 1477 1480 1484 1486 1490 1490 1488 1485 1485 1485 1485 1487 1486 1485 1481 1480 1478 1475 1471 1468 1466 1469 1470 1470 1472 1472 1466 1464 1464 1465 1460 1474 1470 1472 1477 1483 1476
1411 1420 1426 1435 1444 1451 1456 1462 1466 1470 1472 1477 1479 1480 1481 1484 1484 1485 1487 1486 1483 1483 1484 1484 1478 1477 1478 1475 1470 1466 1465 1464 1464 1468 1471 1474 1466 1465 1459 1465 1461 1463 1462 1465 1471 1473 1474
1401 1409 1417 1429 1438 1445 1451 1456 1460 1465 1468 1472 1474 1477 1480 1482 1484 1484 1486 1480 1481 1481 1485 1479 1479 1479 1480 1479 1476 1474 1478 1481 1477 1470 1471 1467 1463 1467 1469 1470 1462 1464 1460 1459 1460 1463 1466
1393 1400 1410 1421 1430 1438 1445 1451 1455 1460 1464 1466 1467 1470 1473 1482 1482 1481 1476 1477 1481 1485 1481 1483 1484 1483 1482 1480 1482 1479 1477 1476 1478 1479 1478 1474 1463 1465 1459 1467 1471 1468 1457 1455 1455 1454 1455
1382 1392 1404 1416 1425 1433 1439 1446 1450 1454 1458 1461 1462 1467 1471 1473 1478 1476 1479 1480 1481 1482 1483 1482 1484 1483 1483 1482 1479 1473 1470 1470 1470 1472 1476 1476 1471 1460 1460 1466 1459 1439 1442 1443 1446 1446 1446
1379 1386 1397 1411 1420 1427 1434 1440 1445 1450 1454 1458 1460 1464 1467 1468 1472 1475 1477 1479 1480 1481 1482 1482 1483 1484 1482 1479 1475 1465 1462 1467 1459 1459 1466 1472 1472 1458 1454 1451 1437 1436 1443 1446 1446 1442 1440
1374 1382 1393 1405 1415 1423 1429 1436 1441 1446 1450 1454 1457 1460 1463 1466 1469 1472 1476 1478 1475 1474 1477 1481 1482 1482 1481 1478 1475 1469 1448 1449 1450 1458 1463 1469 1469 1460 1456 1452 1443 1436 1439 1441 1442 1439 1435
1367 1378 1390 1400 1410 1419 1426 1433 1438 1443 1447 1451 1454 1458 1461 1465 1469 1472 1474 1476 1479 1478 1477 1480 1482 1481 1482 1479 1471 1462 1456 1453 1448 1449 1460 1462 1463 1459 1451 1447 1438 1432 1440 1443 1445 1438 1439
1364 1375 1386 1396 1407 1416 1423 1429 1435 1440 1444 1449 1452 1455 1458 1462 1468 1470 1474 1477 1478 1479 1477 1481 1482 1482 1479 1478 1477 1469 1463 1459 1458 1448 1450 1452 1452 1450 1452 1451 1446 1435 1443 1444 1438 1439 1440
1362 1372 1383 1394 1404 1413 1421 1427 1433 1439 1443 1447 1449 1453 1456 1460 1467 1470 1473 1475 1476 1478 1479 1479 1480 1481 1481 1479 1479 1477 1467 1464 1462 1448 1450 1450 1450 1450 1439 1437 1438 1439 1436 1438 1439 1439 1440